Time,TemperatureF,DewpointF,PressureIn,WindDirection,WindDirectionDegrees,WindSpeedMPH,WindSpeedGustMPH,Humidity,HourlyPrecipIn,Conditions,Clouds,dailyrainin,SolarRadiationWatts/m^2,SoftwareType,DateUTC
2013-07-30 00:02:00,54.0,54.0,-100.00,NE,38,0.0,0.0,99,0.00,,,0.00,0.000000,,2013-07-30 05:02:00,
2013-07-30 00:23:00,54.0,54.0,-100.00,NE,38,0.0,0.0,99,0.00,,,0.00,0.000000,,2013-07-30 05:23:00,
2013-07-30 00:33:00,54.0,54.0,-100.00,NE,38,0.0,0.0,99,0.00,,,0.00,0.000000,,2013-07-30 05:33:00,
2013-07-30 00:45:00,54.0,54.0,-100.00,NE,38,0.0,0.0,99,0.00,,,0.00,0.000000,,2013-07-30 05:45:00,
2013-07-30 00:53:00,54.0,54.0,-100.00,NE,38,0.0,0.0,99,0.00,,,0.00,0.000000,,2013-07-30 05:53:00,
2013-07-30 01:02:00,54.0,54.0,-100.00,NE,43,0.0,0.0,99,0.00,,,0.00,0.000000,,2013-07-30 06:02:00,
2013-07-30 01:23:00,54.0,54.0,-100.00,NE,43,0.0,0.0,99,0.00,,,0.00,0.000000,,2013-07-30 06:23:00,
2013-07-30 01:33:00,54.0,54.0,-100.00,NE,43,0.0,0.0,99,0.00,,,0.00,0.000000,,2013-07-30 06:33:00,
2013-07-30 01:43:00,54.0,54.0,-100.00,NE,43,0.0,0.0,99,0.00,,,0.00,0.000000,,2013-07-30 06:43:00,
2013-07-30 01:53:00,54.0,54.0,-100.00,NE,43,0.0,0.0,99,0.00,,,0.00,0.000000,,2013-07-30 06:53:00,
2013-07-30 02:02:00,55.0,55.0,-100.00,ENE,69,0.0,0.0,99,0.00,,,0.00,0.000000,,2013-07-30 07:02:00,
2013-07-30 02:23:00,55.0,55.0,-100.00,ENE,69,0.0,0.0,99,0.00,,,0.00,0.000000,,2013-07-30 07:23:00,
2013-07-30 02:33:00,55.0,55.0,-100.00,ENE,69,0.0,0.0,99,0.00,,,0.00,0.000000,,2013-07-30 07:33:00,
2013-07-30 02:43:00,55.0,55.0,-100.00,ENE,69,0.0,0.0,99,0.00,,,0.00,0.000000,,2013-07-30 07:43:00,
2013-07-30 02:53:00,55.0,55.0,-100.00,ENE,69,0.0,0.0,99,0.00,,,0.00,0.000000,,2013-07-30 07:53:00,
2013-07-30 03:02:00,56.0,56.0,-100.00,ESE,122,1.0,3.0,99,0.00,,,0.00,0.000000,,2013-07-30 08:02:00,
2013-07-30 03:23:00,56.0,56.0,-100.00,ESE,122,1.0,3.0,99,0.00,,,0.00,0.000000,,2013-07-30 08:23:00,
2013-07-30 03:33:00,56.0,56.0,-100.00,ESE,122,1.0,3.0,99,0.00,,,0.00,0.000000,,2013-07-30 08:33:00,
2013-07-30 03:43:00,56.0,56.0,-100.00,ESE,122,1.0,3.0,99,0.00,,,0.00,0.000000,,2013-07-30 08:43:00,
2013-07-30 03:53:00,56.0,56.0,-100.00,ESE,122,1.0,3.0,99,0.00,,,0.00,0.000000,,2013-07-30 08:53:00,
2013-07-30 04:02:00,55.0,55.0,-100.00,East,97,0.0,2.0,99,0.00,,,0.00,0.000000,,2013-07-30 09:02:00,
2013-07-30 04:23:00,55.0,55.0,-100.00,East,97,0.0,2.0,99,0.00,,,0.00,0.000000,,2013-07-30 09:23:00,
2013-07-30 04:33:00,55.0,55.0,-100.00,East,97,0.0,2.0,99,0.00,,,0.00,0.000000,,2013-07-30 09:33:00,
2013-07-30 04:43:00,55.0,55.0,-100.00,East,97,0.0,2.0,99,0.00,,,0.00,0.000000,,2013-07-30 09:43:00,
2013-07-30 04:53:00,55.0,55.0,-100.00,East,97,0.0,2.0,99,0.00,,,0.00,0.000000,,2013-07-30 09:53:00,
2013-07-30 05:02:00,57.0,56.0,-100.00,SE,137,2.0,4.0,95,0.00,,,0.00,0.000000,,2013-07-30 10:02:00,
2013-07-30 05:23:00,57.0,56.0,-100.00,SE,137,2.0,4.0,95,0.00,,,0.00,0.000000,,2013-07-30 10:23:00,
2013-07-30 05:33:00,57.0,56.0,-100.00,SE,137,2.0,4.0,95,0.00,,,0.00,0.000000,,2013-07-30 10:33:00,
2013-07-30 05:44:00,57.0,56.0,-100.00,SE,137,2.0,4.0,95,0.00,,,0.00,0.000000,,2013-07-30 10:44:00,
2013-07-30 05:52:00,57.0,56.0,-100.00,SE,137,2.0,4.0,95,0.00,,,0.00,0.000000,,2013-07-30 10:52:00,
2013-07-30 06:33:00,58.0,56.0,-100.00,SSE,148,2.0,5.0,93,0.00,,,0.00,1.000000,,2013-07-30 11:33:00,
2013-07-30 06:43:00,58.0,56.0,-100.00,SSE,148,2.0,5.0,93,0.00,,,0.00,1.000000,,2013-07-30 11:43:00,
2013-07-30 06:53:00,58.0,56.0,-100.00,SSE,148,2.0,5.0,93,0.00,,,0.00,1.000000,,2013-07-30 11:53:00,
2013-07-30 07:02:00,59.0,56.0,-100.00,SSE,165,3.0,7.0,90,0.00,,,0.00,28.000000,,2013-07-30 12:02:00,
2013-07-30 07:22:00,59.0,56.0,-100.00,SSE,165,3.0,7.0,90,0.00,,,0.00,28.000000,,2013-07-30 12:22:00,
2013-07-30 07:33:00,59.0,56.0,-100.00,SSE,165,3.0,7.0,90,0.00,,,0.00,28.000000,,2013-07-30 12:33:00,
2013-07-30 07:42:00,59.0,56.0,-100.00,SSE,165,3.0,7.0,90,0.00,,,0.00,28.000000,,2013-07-30 12:42:00,
2013-07-30 07:53:00,59.0,56.0,-100.00,SSE,165,3.0,7.0,90,0.00,,,0.00,28.000000,,2013-07-30 12:53:00,
2013-07-30 08:02:00,60.0,57.0,-100.00,SSE,163,2.0,5.0,91,0.00,,,0.00,39.000000,,2013-07-30 13:02:00,
2013-07-30 08:33:00,60.0,57.0,-100.00,SSE,163,2.0,5.0,91,0.00,,,0.00,39.000000,,2013-07-30 13:33:00,
2013-07-30 08:43:00,60.0,57.0,-100.00,SSE,163,2.0,5.0,91,0.00,,,0.00,39.000000,,2013-07-30 13:43:00,
2013-07-30 08:52:00,60.0,57.0,-100.00,SSE,163,2.0,5.0,91,0.00,,,0.00,39.000000,,2013-07-30 13:52:00,
2013-07-30 09:02:00,61.0,58.0,-100.00,SSE,147,3.0,5.0,91,0.00,,,0.00,76.000000,,2013-07-30 14:02:00,
2013-07-30 09:22:00,61.0,58.0,-100.00,SSE,147,3.0,5.0,91,0.00,,,0.00,76.000000,,2013-07-30 14:22:00,
2013-07-30 09:33:00,61.0,58.0,-100.00,SSE,147,3.0,5.0,91,0.00,,,0.00,76.000000,,2013-07-30 14:33:00,
2013-07-30 09:43:00,61.0,58.0,-100.00,SSE,147,3.0,5.0,91,0.00,,,0.00,76.000000,,2013-07-30 14:43:00,
2013-07-30 09:53:00,61.0,58.0,-100.00,SSE,147,3.0,5.0,91,0.00,,,0.00,76.000000,,2013-07-30 14:53:00,
2013-07-30 10:02:00,63.0,59.0,-100.00,SSE,163,5.0,10.0,86,0.00,,,0.00,182.000000,,2013-07-30 15:02:00,
2013-07-30 10:23:00,63.0,59.0,-100.00,SSE,163,5.0,10.0,86,0.00,,,0.00,182.000000,,2013-07-30 15:23:00,
2013-07-30 10:33:00,63.0,59.0,-100.00,SSE,163,5.0,10.0,86,0.00,,,0.00,182.000000,,2013-07-30 15:33:00,
2013-07-30 10:43:00,63.0,59.0,-100.00,SSE,163,5.0,10.0,86,0.00,,,0.00,182.000000,,2013-07-30 15:43:00,
2013-07-30 10:53:00,63.0,59.0,-100.00,SSE,163,5.0,10.0,86,0.00,,,0.00,182.000000,,2013-07-30 15:53:00,
2013-07-30 11:02:00,66.0,59.0,-100.00,SSE,160,5.0,12.0,78,0.00,,,0.00,365.000000,,2013-07-30 16:02:00,
2013-07-30 11:23:00,66.0,59.0,-100.00,SSE,160,5.0,12.0,78,0.00,,,0.00,365.000000,,2013-07-30 16:23:00,
2013-07-30 11:33:00,66.0,59.0,-100.00,SSE,160,5.0,12.0,78,0.00,,,0.00,365.000000,,2013-07-30 16:33:00,
2013-07-30 11:44:00,66.0,59.0,-100.00,SSE,160,5.0,12.0,78,0.00,,,0.00,365.000000,,2013-07-30 16:44:00,
2013-07-30 11:52:00,66.0,59.0,-100.00,SSE,160,5.0,12.0,78,0.00,,,0.00,365.000000,,2013-07-30 16:52:00,
2013-07-30 12:02:00,68.0,57.0,-100.00,SSW,210,6.0,12.0,69,0.00,,,0.00,424.000000,,2013-07-30 17:02:00,
2013-07-30 12:22:00,68.0,57.0,-100.00,SSW,210,6.0,12.0,69,0.00,,,0.00,424.000000,,2013-07-30 17:22:00,
2013-07-30 12:32:00,68.0,57.0,-100.00,SSW,210,6.0,12.0,69,0.00,,,0.00,424.000000,,2013-07-30 17:32:00,
2013-07-30 12:43:00,68.0,57.0,-100.00,SSW,210,6.0,12.0,69,0.00,,,0.00,424.000000,,2013-07-30 17:43:00,
2013-07-30 12:54:00,68.0,57.0,-100.00,SSW,210,6.0,12.0,69,0.00,,,0.00,424.000000,,2013-07-30 17:54:00,
2013-07-30 13:02:00,70.0,59.0,-100.00,SSW,205,6.0,13.0,68,0.00,,,0.00,485.000000,,2013-07-30 18:02:00,
2013-07-30 13:23:00,70.0,59.0,-100.00,SSW,205,6.0,13.0,68,0.00,,,0.00,485.000000,,2013-07-30 18:23:00,
2013-07-30 13:32:00,70.0,59.0,-100.00,SSW,205,6.0,13.0,68,0.00,,,0.00,485.000000,,2013-07-30 18:32:00,
2013-07-30 13:43:00,70.0,59.0,-100.00,SSW,205,6.0,13.0,68,0.00,,,0.00,485.000000,,2013-07-30 18:43:00,
2013-07-30 13:52:00,70.0,59.0,-100.00,SSW,205,6.0,13.0,68,0.00,,,0.00,485.000000,,2013-07-30 18:52:00,
2013-07-30 14:02:00,69.0,59.0,-100.00,SSW,210,5.0,15.0,70,0.00,,,0.00,438.000000,,2013-07-30 19:02:00,
2013-07-30 14:23:00,69.0,59.0,-100.00,SSW,210,5.0,15.0,70,0.00,,,0.00,438.000000,,2013-07-30 19:23:00,
2013-07-30 14:33:00,69.0,59.0,-100.00,SSW,210,5.0,15.0,70,0.00,,,0.00,438.000000,,2013-07-30 19:33:00,
2013-07-30 14:44:00,69.0,59.0,-100.00,SSW,210,5.0,15.0,70,0.00,,,0.00,438.000000,,2013-07-30 19:44:00,
2013-07-30 14:52:00,69.0,59.0,-100.00,SSW,210,5.0,15.0,70,0.00,,,0.00,438.000000,,2013-07-30 19:52:00,
2013-07-30 15:02:00,68.0,58.0,-100.00,South,181,5.0,14.0,71,0.00,,,0.00,362.000000,,2013-07-30 20:02:00,
2013-07-30 15:22:00,68.0,58.0,-100.00,South,181,5.0,14.0,71,0.00,,,0.00,362.000000,,2013-07-30 20:22:00,
2013-07-30 15:33:00,68.0,58.0,-100.00,South,181,5.0,14.0,71,0.00,,,0.00,362.000000,,2013-07-30 20:33:00,
2013-07-30 15:43:00,68.0,58.0,-100.00,South,181,5.0,14.0,71,0.00,,,0.00,362.000000,,2013-07-30 20:43:00,
2013-07-30 15:52:00,68.0,58.0,-100.00,South,181,5.0,14.0,71,0.00,,,0.00,362.000000,,2013-07-30 20:52:00,
2013-07-30 16:02:00,68.0,59.0,-100.00,SSW,192,5.0,12.0,73,0.00,,,0.00,309.000000,,2013-07-30 21:02:00,
2013-07-30 16:32:00,68.0,59.0,-100.00,SSW,192,5.0,12.0,73,0.00,,,0.00,309.000000,,2013-07-30 21:32:00,
2013-07-30 16:42:00,68.0,59.0,-100.00,SSW,192,5.0,12.0,73,0.00,,,0.00,309.000000,,2013-07-30 21:42:00,
2013-07-30 16:53:00,68.0,59.0,-100.00,SSW,192,5.0,12.0,73,0.00,,,0.00,309.000000,,2013-07-30 21:53:00,
2013-07-30 17:02:00,66.0,59.0,-100.00,South,185,4.0,10.0,79,0.00,,,0.00,156.000000,,2013-07-30 22:02:00,
2013-07-30 17:32:00,66.0,59.0,-100.00,South,185,4.0,10.0,79,0.00,,,0.00,156.000000,,2013-07-30 22:32:00,
2013-07-30 17:43:00,66.0,59.0,-100.00,South,185,4.0,10.0,79,0.00,,,0.00,156.000000,,2013-07-30 22:43:00,
2013-07-30 17:53:00,66.0,59.0,-100.00,South,185,4.0,10.0,79,0.00,,,0.00,156.000000,,2013-07-30 22:53:00,
2013-07-30 18:02:00,65.0,60.0,-100.00,SW,217,3.0,8.0,83,0.00,,,0.00,91.000000,,2013-07-30 23:02:00,
2013-07-30 18:23:00,65.0,60.0,-100.00,SW,217,3.0,8.0,83,0.00,,,0.00,91.000000,,2013-07-30 23:23:00,
2013-07-30 18:32:00,65.0,60.0,-100.00,SW,217,3.0,8.0,83,0.00,,,0.00,91.000000,,2013-07-30 23:32:00,
2013-07-30 18:42:00,65.0,60.0,-100.00,SW,217,3.0,8.0,83,0.00,,,0.00,91.000000,,2013-07-30 23:42:00,
2013-07-30 18:53:00,65.0,60.0,-100.00,SW,217,3.0,8.0,83,0.00,,,0.00,91.000000,,2013-07-30 23:53:00,
2013-07-30 19:02:00,64.0,60.0,-100.00,South,173,2.0,7.0,86,0.00,,,0.00,29.000000,,2013-07-31 00:02:00,
2013-07-30 19:22:00,64.0,60.0,-100.00,South,173,2.0,7.0,86,0.00,,,0.00,29.000000,,2013-07-31 00:22:00,
2013-07-30 19:32:00,64.0,60.0,-100.00,South,173,2.0,7.0,86,0.00,,,0.00,29.000000,,2013-07-31 00:32:00,
2013-07-30 19:43:00,64.0,60.0,-100.00,South,173,2.0,7.0,86,0.00,,,0.00,29.000000,,2013-07-31 00:43:00,
2013-07-30 19:53:00,64.0,60.0,-100.00,South,173,2.0,7.0,86,0.00,,,0.00,29.000000,,2013-07-31 00:53:00,
2013-07-30 20:02:00,63.0,62.0,-100.00,SE,138,0.0,5.0,95,0.00,,,0.00,15.000000,,2013-07-31 01:02:00,
2013-07-30 20:22:00,63.0,62.0,-100.00,SE,138,0.0,5.0,95,0.00,,,0.00,15.000000,,2013-07-31 01:22:00,
2013-07-30 20:32:00,63.0,62.0,-100.00,SE,138,0.0,5.0,95,0.00,,,0.00,15.000000,,2013-07-31 01:32:00,
2013-07-30 20:43:00,63.0,62.0,-100.00,SE,138,0.0,5.0,95,0.00,,,0.00,15.000000,,2013-07-31 01:43:00,
2013-07-30 20:52:00,63.0,62.0,-100.00,SE,138,0.0,5.0,95,0.00,,,0.00,15.000000,,2013-07-31 01:52:00,
2013-07-30 21:02:00,62.0,61.0,-100.00,South,182,2.0,5.0,96,0.00,,,0.00,1.000000,,2013-07-31 02:02:00,
2013-07-30 21:22:00,62.0,61.0,-100.00,South,182,2.0,5.0,96,0.00,,,0.00,1.000000,,2013-07-31 02:22:00,
2013-07-30 21:32:00,62.0,61.0,-100.00,South,182,2.0,5.0,96,0.00,,,0.00,1.000000,,2013-07-31 02:32:00,
2013-07-30 21:43:00,62.0,61.0,-100.00,South,182,2.0,5.0,96,0.00,,,0.00,1.000000,,2013-07-31 02:43:00,
2013-07-30 21:52:00,62.0,61.0,-100.00,South,182,2.0,5.0,96,0.00,,,0.00,1.000000,,2013-07-31 02:52:00,
2013-07-30 22:02:00,62.0,61.0,-100.00,SSE,151,2.0,6.0,96,0.00,,,0.00,0.000000,,2013-07-31 03:02:00,
2013-07-30 22:22:00,62.0,61.0,-100.00,SSE,151,2.0,6.0,96,0.00,,,0.00,0.000000,,2013-07-31 03:22:00,
2013-07-30 22:32:00,62.0,61.0,-100.00,SSE,151,2.0,6.0,96,0.00,,,0.00,0.000000,,2013-07-31 03:32:00,
2013-07-30 22:42:00,62.0,61.0,-100.00,SSE,151,2.0,6.0,96,0.00,,,0.00,0.000000,,2013-07-31 03:42:00,
2013-07-30 22:52:00,62.0,61.0,-100.00,SSE,151,2.0,6.0,96,0.00,,,0.00,0.000000,,2013-07-31 03:52:00,
2013-07-30 23:02:00,62.0,61.0,-100.00,SE,144,2.0,7.0,97,0.00,,,-99.99,0.000000,,2013-07-31 04:02:00,
2013-07-30 23:22:00,62.0,61.0,-100.00,SE,144,2.0,7.0,97,0.00,,,-99.99,0.000000,,2013-07-31 04:22:00,
2013-07-30 23:32:00,62.0,61.0,-100.00,SE,144,2.0,7.0,97,0.00,,,-99.99,0.000000,,2013-07-31 04:32:00,
2013-07-30 23:42:00,62.0,61.0,-100.00,SE,144,2.0,7.0,97,0.00,,,-99.99,0.000000,,2013-07-31 04:42:00,
2013-07-30 23:52:00,62.0,61.0,-100.00,SE,144,2.0,7.0,97,0.00,,,-99.99,0.000000,,2013-07-31 04:52:00,